Weather History for LIRM - September, 2013

Change the Weather History Date:

Saturday, September 7, 2013

  Actual Average Record
Temperature  
Mean Temperature 75 °F -  
Max Temperature 86 °F 78 °F - ()
Min Temperature 64 °F 58 °F - ()
Cooling Degree Days 10    
Growing Degree Days 25 (Base 50)    
Moisture  
Dew Point 69 °F    
Average Humidity 82    
Maximum Humidity 100    
Minimum Humidity 54    
Precipitation  
Precipitation 0.00 in 0.11 in - ()
Sea Level Pressure  
Sea Level Pressure 30.02 in    
Wind  
Wind Speed 5 mph ()    
Max Wind Speed 14 mph    
Max Gust Speed -    
Visibility 8.6 miles    
Events      
T = Trace of Precipitation, MM = Missing Value Source: Averaged Metar Reports

Daily Weather History Graph

Daily Weather History Graph

Search for Another Location

Airport or City:

Trip Planner

Search our weather history database for the weather conditions in past years. The results will help you decide how hot, cold, wet, or windy it might be!

Date:

Astronomy

Sep. 07, 2013 Rise Set
Actual Time 6:36 AM CEST 7:26 PM CEST
Civil Twilight 6:08 AM CEST 7:54 PM CEST
Nautical Twilight 5:35 AM CEST 8:27 PM CEST
Astronomical Twilight 5:00 AM CEST 9:01 PM CEST
Moon 8:34 AM CEST (9/7) 8:13 PM CEST (9/7)
Length of Visible Light 13h 45m
Length of Day
12h 50m
Waxing Crescent, 4% of the Moon is Illuminated
Sep 7
Waxing Crescent
Sep 12
First Quarter
Sep 19
Full
Sep 27
Last Quarter
Oct 5
New

Hourly Weather History & Observations

Time (CEST) Temp. Heat Index Dew Point Humidity Pressure Visibility Wind Dir Wind Speed Gust Speed Precip Events Conditions
12:55 AM 68.0 °F - 64.4 °F 88% 29.95 in - NE 4.6 mph - N/A   Clear
1:55 AM 66.2 °F - 62.6 °F 88% 29.98 in - North 4.6 mph - N/A   Clear
2:00 AM 65 °F - 62 °F 86% 29.98 in 9 mi North 4.6 mph - -  
2:55 AM 64.4 °F - 60.8 °F 88% 29.98 in - North 3.5 mph - N/A   Clear
3:55 AM 66.2 °F - 62.6 °F 88% 29.98 in - NE 4.6 mph - N/A   Clear
4:55 AM 64.4 °F - 60.8 °F 88% 29.98 in - NNE 4.6 mph - N/A   Clear
5:00 AM 65 °F - 62 °F 85% 29.99 in 9 mi NNE 4.6 mph - -  
5:55 AM 66.2 °F - 62.6 °F 88% 29.98 in - NNE 3.5 mph - N/A   Clear
6:55 AM 64.4 °F - 60.8 °F 88% 30.01 in - NNE 5.8 mph - N/A   Clear
7:55 AM 64.4 °F - 60.8 °F 88% 30.01 in - North 3.5 mph - N/A   Clear
8:00 AM 65 °F - 61 °F 82% 30.03 in 12 mi North 3.5 mph - -  
8:55 AM 71.6 °F - 66.2 °F 83% 30.01 in - NE 5.8 mph - N/A   Clear
9:55 AM 77.0 °F - 68.0 °F 74% 30.04 in - NE 5.8 mph - N/A   Clear
10:55 AM 80.6 °F 85.4 °F 73.4 °F 79% 30.04 in - NNE 3.5 mph - N/A   Clear
11:00 AM 81 °F - 73 °F 70% 30.04 in 12 mi NNE 3.5 mph - -  
11:55 AM 82.4 °F 86.3 °F 69.8 °F 66% 30.04 in - WSW 2.3 mph - N/A   Clear
12:55 PM 86.0 °F 90.4 °F 69.8 °F 58% 30.04 in 6.2 mi West 3.5 mph - N/A   Partly Cloudy
1:55 PM 86.0 °F 91.8 °F 71.6 °F 62% 30.04 in 6.2 mi West 11.5 mph - N/A   Partly Cloudy
2:00 PM 86 °F - 72 °F 54% 30.04 in 12 mi West 11.5 mph - -  
2:55 PM 86.0 °F 93.4 °F 73.4 °F 66% 30.04 in 6.2 mi West 10.4 mph - N/A   Partly Cloudy
3:55 PM 84.2 °F 90.9 °F 73.4 °F 70% 30.04 in 6.2 mi West 10.4 mph - N/A   Partly Cloudy
4:55 PM 84.2 °F 94.1 °F 77.0 °F 79% 30.04 in 6.2 mi West 11.5 mph - N/A   Partly Cloudy
5:00 PM 83 °F - 77 °F 76% 30.04 in 12 mi West 11.5 mph - -   Scattered Clouds
5:55 PM 80.6 °F 87.1 °F 77.0 °F 89% 30.04 in 6.2 mi West 13.8 mph - N/A   Partly Cloudy
6:55 PM 80.6 °F 87.1 °F 77.0 °F 89% 30.04 in 6.2 mi West 9.2 mph - N/A   Scattered Clouds
7:55 PM 77.0 °F - 75.2 °F 94% 30.04 in 6.2 mi WSW 2.3 mph - N/A   Scattered Clouds
8:00 PM 77 °F - 75 °F 93% 30.04 in 12 mi WSW 2.3 mph - -  
8:55 PM 75.2 °F - 73.4 °F 94% 30.04 in 6.2 mi SW 3.5 mph - N/A   Partly Cloudy
9:55 PM 73.4 °F - 73.4 °F 100% 30.06 in - South 4.6 mph - N/A   Clear
10:55 PM 73.4 °F - 71.6 °F 94% 30.06 in - South 3.5 mph - N/A   Clear
11:00 PM 73 °F - 71 °F 91% 30.08 in 12 mi South 3.5 mph - -  
11:55 PM 71.6 °F - 68.0 °F 88% 30.06 in - East 2.3 mph - N/A   Clear